FALCON 9 DEB (46594 NORAD) Tracking and Keplerian Element Data

This shows tracking and keplerian element data for the satellite.

Feedback or suggestion? Click here.




ElementValue
Catalog46594
NameFALCON 9 DEB
Epoch Orbit462
Epoch Day304.33309348
Epoch Year2020
RAAN319.966
Inclination52.9825
Eccentricity0.0008073
Argument of Perigee46.5908
Mean Anonmoly313.58
Mean Motion16.20077571
Decay Rate0.01071887
L11 46594U 20070BQ 20304.33309348 .01071887 11834-4 53436-3 0 9996
L22 46594 52.9825 319.9660 0008073 46.5908 313.5800 16.20077571 4623

Live tracking and technical data element details for FALCON 9 DEB (NORAD 46594). FALCON 9 DEB can be tracked NOW for your location showing map with azimuth and elevation plus other details from your city location.

Track the satellite on the map from your city or location and see movement details for azimuth, elevation, latitude, longitude, range, height, and movement on the map or in text.







IsCatalogInMostPopularTable: catalog: 46594, numindb: 5
Update: records affected: 1



GetName: 46594 FALCON 9 DEB

Hit Count: updated at: Sat, 31 Oct 2020 11:05:47 GMT